Flag for U.S.A. Weather past 2 weeks in Compton, California, U.S.A.

Now
70 °F

Clear.


Feels Like: 70 °F
Forecast: 69 / 84 °F
Wind: 5 mph from West

Location: Hawthorne Municipal Airport

Current Time: Jul 31, 2014 at 12:45:30 AM

Latest Report: Jul 30, 2014 at 11:53 PM


Visibility: 10 mi

Pressure: 29.93 "Hg

Humidity: 81%

Dew point: 64 °F

Location of ComptonLocation

Historic Weather in Compton — Graph

°F

Compton temperature yesterday

Maximum temperature yesterday: 82 °F (at 10:53 AM)
Minimum temperature yesterday: 69 °F (at 2:53 AM)
Average temperature yesterday: 74 °F

Past Weeks' High & Low Weather Summary

 TemperatureHumidityPressure
High86 °F (Jul 24, 10:53 AM)96% (Jul 26, 7:53 AM)30.07 "Hg (Jul 26, 7:53 AM)
Low66 °F (Jul 18, 3:53 AM)29% (Jul 28, 12:53 PM)29.74 "Hg (Jul 24, 5:53 PM)
Average72 °F72%29.97 "Hg
* Reported Jul 15 11:53 PM — Jul 30 11:53 PM, Compton, Weather by CustomWeather, © 2014

Note: Actual official high and low records may vary slightly from our data, if they occured in-between our weather recording intervals... More about our weather records

Advertising

Compton weather history for previous 24 hours

 ConditionsComfort  
Time TempWeatherWind HumidityBarometerVisibility
11:53 PM
Jul 30
70 °FClear.5 mph81%29.93 "Hg10 mi
10:53 PM70 °FClear.No wind84%29.93 "Hg10 mi
9:53 PM70 °FClear.No wind84%29.93 "Hg10 mi
8:53 PM70 °FSunny.6 mph81%29.91 "Hg10 mi
7:53 PM72 °FSunny.6 mph76%29.90 "Hg10 mi
6:53 PM75 °FSunny.9 mph58%29.89 "Hg10 mi
5:53 PM76 °FSunny.8 mph58%29.89 "Hg10 mi
4:53 PM77 °FSunny.9 mph58%29.90 "Hg10 mi
3:53 PM78 °FSunny.8 mph60%29.91 "Hg10 mi
2:53 PM80 °FSunny.10 mph52%29.93 "Hg10 mi
1:53 PM80 °FSunny.10 mph54%29.93 "Hg10 mi
12:53 PM80 °FSunny.10 mph56%29.95 "Hg10 mi
11:53 AM81 °FSunny.12 mph56%29.95 "Hg10 mi
10:53 AM82 °FSunny.No wind51%29.95 "Hg10 mi
9:53 AM77 °FSunny.No wind60%29.96 "Hg10 mi
8:53 AM74 °FSunny.No wind74%29.96 "Hg10 mi
7:53 AM72 °FSunny.No wind76%29.96 "Hg10 mi
6:53 AM71 °FClear.No wind76%29.95 "Hg10 mi
5:53 AM69 °FClear.No wind81%29.94 "Hg10 mi
4:53 AM69 °FClear.No wind79%29.93 "Hg10 mi
3:53 AM70 °FClear.No wind79%29.93 "Hg10 mi
2:53 AM69 °FClear.No wind79%29.94 "Hg10 mi
1:53 AM70 °FClear.No wind81%29.95 "Hg10 mi
12:53 AM70 °FClear.No wind81%29.96 "Hg10 mi
Weather by CustomWeather, © 2014

See weather overviewHow to use our weather pages